Wetbulb
50.31 50.67 51.30 52.11 53.12 54.06 55.18 56.48 57.87 58.85 59.62 60.15 60.69 61.11 61.41 61.52 62.34 63.21 63.93 63.94 63.26 63.07 63.12 63.18 62.93 62.64 62.60 63.04 63.24 63.17 63.09 62.89 62.72 62.42 62.03 61.95 62.27 62.59 62.71 62.51 62.17 61.46 60.91 60.82 58.68 55.92 53.16 51.38 50.63 50.32 50.28 50.43 50.12 49.45 48.96 48.96 50.22 50.44 50.09 49.50 48.78 48.15 47.79 47.79 47.43 47.03 46.71 46.80 47.07
50.38 50.29 50.65 51.74 52.42 52.95 53.56 54.75 56.41 57.85 59.16 60.22 60.79 61.22 61.42 61.50 61.53 62.61 63.57 63.53 63.06 62.86 62.89 62.84 62.42 62.19 62.18 62.56 63.06 63.03 62.66 62.24 62.01 61.74 61.53 61.51 61.99 62.49 62.44 61.58 61.13 60.27 58.64 55.84 53.64 52.08 51.13 50.80 50.67 50.10 49.48 48.96 48.69 48.33 47.93 47.93 48.82 49.14 49.05 48.82 48.46 48.15 47.88 47.88 47.47 47.07 46.71 46.62 46.44
50.38 50.27 50.19 50.17 50.40 51.04 51.89 52.98 54.32 55.72 57.24 59.22 60.41 61.11 61.45 61.60 61.49 61.48 61.57 61.73 62.01 62.58 62.94 62.51 61.95 61.60 61.74 62.60 63.10 63.03 62.55 61.69 61.21 60.82 60.61 60.40 60.48 60.11 59.52 59.11 57.38 55.52 53.74 52.27 51.19 50.56 50.33 50.24 50.19 49.80 49.13 48.37 48.10 47.61 47.25 47.16 48.15 48.37 48.15 47.79 47.65 47.65 47.70 47.75 47.16 46.75 46.48 46.12 45.58
50.37 50.38 50.10 49.71 49.51 49.64 50.22 51.46 52.27 53.48 55.20 57.40 58.86 60.08 60.92 61.45 61.53 61.48 61.24 60.98 61.63 62.46 62.81 61.95 61.52 61.30 61.51 62.25 62.54 62.31 61.74 60.74 60.40 59.49 58.35 56.97 56.84 56.58 55.85 54.66 53.34 52.27 51.37 50.97 50.43 50.07 49.89 50.25 50.21 49.85 49.41 48.87 48.19 47.57 47.02 46.98 47.47 47.79 47.66 46.84 46.57 46.66 46.71 46.53 46.53 46.35 46.03 45.26 44.36
50.20 50.50 50.67 50.37 49.96 49.78 49.81 50.27 50.80 51.77 53.12 54.82 56.65 58.44 59.99 61.21 61.43 61.27 60.97 60.65 60.53 60.62 60.94 61.26 61.21 61.19 61.22 61.22 61.45 61.24 60.59 59.66 58.48 57.27 56.03 54.85 54.44 53.93 53.49 52.63 51.96 51.33 50.97 51.01 50.86 50.72 50.86 51.10 50.62 50.00 49.37 48.96 48.38 47.75 47.11 46.53 46.71 46.89 46.89 46.62 46.39 46.35 45.94 45.08 45.13 45.17 45.04 44.18 43.09
49.63 50.07 50.64 50.97 51.02 50.88 50.64 50.61 50.42 50.86 51.64 52.71 53.87 55.56 57.55 59.55 60.43 60.73 60.72 60.42 60.05 59.98 60.14 60.39 60.00 60.19 60.54 60.80 61.23 60.76 59.40 57.51 56.10 54.90 54.05 53.36 52.85 52.46 52.01 51.60 51.38 51.42 51.59 51.95 51.88 51.57 51.15 51.07 50.32 49.69 49.33 49.10 48.69 47.97 47.16 46.35 46.21 46.21 46.21 46.21 46.12 45.98 45.49 44.17 44.04 44.09 44.00 43.23 42.19
49.54 49.79 50.11 50.58 51.22 51.59 51.57 51.43 51.06 50.89 51.00 51.43 51.82 52.77 54.31 56.40 58.17 59.35 60.13 60.37 60.51 60.55 60.26 59.22 59.15 59.46 60.02 60.39 59.85 58.48 56.76 55.15 54.23 53.37 52.71 52.13 51.60 51.38 51.29 51.29 51.90 52.20 52.28 52.05 51.61 51.05 50.75 50.85 50.23 49.73 49.46 49.15 48.38 47.66 46.98 46.39 45.85 45.76 45.71 45.76 45.67 45.58 44.99 43.63 43.23 43.41 43.46 42.47 41.79
49.94 50.12 50.25 50.48 50.99 51.45 51.80 52.11 51.89 51.55 51.36 51.37 51.21 51.55 52.32 53.57 54.91 56.98 58.79 59.40 60.74 60.46 59.38 58.34 58.84 59.03 58.72 57.90 56.82 55.52 54.17 53.12 52.49 52.08 51.54 51.06 50.43 50.33 50.60 51.09 51.22 51.26 51.18 50.84 50.58 50.45 50.54 50.68 49.92 49.33 48.83 48.33 47.70 47.20 46.71 46.21 45.80 45.49 45.35 45.21 44.76 44.49 44.27 43.73 43.00 43.00 43.01 42.25 41.53
49.97 50.06 50.28 50.54 51.05 51.44 51.95 52.26 52.18 52.02 51.74 51.32 51.14 51.27 51.65 52.41 53.54 56.05 58.22 58.81 59.52 59.28 58.87 58.81 58.22 57.35 56.17 55.03 54.17 53.43 52.69 51.96 51.36 50.96 50.63 50.45 50.14 50.10 50.10 49.94 49.27 49.37 49.59 49.24 49.78 50.23 50.50 50.14 49.42 48.74 48.06 47.48 46.93 46.62 46.35 46.30 45.94 45.49 44.85 43.99 43.27 43.00 42.95 43.05 42.60 42.55 42.47 41.94 41.21
49.70 49.87 50.14 50.46 50.95 51.52 51.90 52.05 52.15 52.12 52.03 51.61 51.51 51.52 52.03 53.39 55.71 57.44 58.29 58.32 58.59 58.70 58.50 58.18 56.60 55.23 54.16 53.29 52.84 52.28 51.79 51.18 50.52 50.12 49.93 49.96 49.61 49.17 48.77 48.42 48.06 48.02 48.43 49.10 49.87 50.00 49.78 49.24 48.65 48.15 47.48 46.84 46.39 46.16 46.08 46.17 45.71 44.90 43.91 42.86 42.37 41.96 41.87 41.96 42.01 42.06 41.79 41.48 40.67
49.65 49.87 50.19 50.54 51.06 51.56 51.91 51.98 52.23 52.33 52.21 51.91 51.75 51.97 53.05 55.79 57.01 57.42 57.30 57.12 56.91 56.19 55.48 55.20 54.32 53.38 52.53 51.89 51.55 51.24 50.96 50.67 50.11 49.58 49.09 48.82 48.55 48.06 47.70 47.70 48.02 48.51 49.06 49.74 49.69 49.51 49.06 48.42 47.57 46.84 46.17 45.85 45.80 45.80 45.76 45.58 44.77 43.64 42.56 41.92 41.74 41.43 41.20 41.10 41.33 41.33 41.02 40.67 39.95
49.63 49.81 50.22 50.65 51.15 51.60 51.93 52.12 52.28 52.36 52.34 52.15 52.46 53.25 54.39 55.17 54.86 54.79 54.56 54.10 53.26 52.65 52.24 52.15 51.77 51.24 50.87 50.74 50.39 50.30 50.14 49.90 49.60 49.22 48.73 48.11 47.97 47.97 48.15 48.42 48.78 49.24 49.60 49.51 49.42 48.97 48.42 47.43 46.48 45.67 45.18 45.08 45.17 45.08 44.91 44.33 43.30 42.31 41.58 41.30 41.12 40.94 40.67 40.57 40.61 40.57 40.30 39.86 39.19
49.61 49.90 50.37 50.90 51.37 51.80 52.00 52.20 52.28 52.44 52.83 53.43 53.74 53.74 53.41 52.95 52.74 52.67 52.39 51.59 51.03 50.56 50.30 50.10 49.87 49.60 49.44 49.60 49.62 49.55 49.44 49.19 48.81 48.51 48.24 48.06 48.60 48.92 49.01 49.19 49.41 49.37 49.15 48.96 48.74 48.11 47.29 46.44 45.72 45.08 44.59 44.41 44.49 44.27 43.87 43.12 42.27 41.55 41.13 40.81 40.68 40.45 40.40 40.18 40.13 39.90 39.51 39.07 38.66
49.63 50.01 50.51 51.24 51.88 52.20 52.33 52.16 52.55 52.99 53.23 52.77 52.54 52.11 51.76 51.48 51.60 51.46 51.08 50.38 49.82 49.52 49.30 49.13 49.23 49.25 49.14 49.08 48.97 48.77 48.48 48.22 47.92 47.74 47.79 48.19 48.59 48.77 48.77 48.64 48.37 48.15 47.79 47.47 47.20 46.71 46.17 45.49 45.00 44.54 44.14 43.73 43.50 43.23 42.88 42.30 41.67 41.30 40.94 40.63 40.41 40.31 40.17 39.99 39.64 39.25 38.81 38.36 38.17
49.85 50.38 51.07 51.91 52.41 52.59 52.57 52.45 53.11 52.83 52.01 51.09 50.79 50.67 50.48 50.28 50.20 50.11 49.73 49.11 48.98 48.95 48.98 48.70 48.67 48.60 48.54 48.34 48.10 47.90 47.55 47.33 47.29 47.29 47.47 47.65 47.74 47.60 47.43 46.98 46.67 46.40 46.13 45.86 45.68 45.46 45.09 44.68 44.23 43.78 43.37 42.82 42.37 42.01 41.70 41.39 41.11 40.93 40.76 40.71 40.49 40.21 39.85 39.40 38.95 38.66 38.39 38.03 37.70
50.41 51.14 51.69 52.15 52.44 52.45 52.48 52.58 52.19 51.37 50.56 49.90 49.71 49.57 49.38 49.09 48.97 48.76 48.43 47.97 47.93 47.96 47.92 47.55 47.38 47.39 47.39 47.49 47.32 47.19 47.06 46.97 46.97 46.98 46.89 46.76 46.58 46.22 45.96 45.51 45.25 45.02 44.84 44.66 44.52 44.38 44.07 43.70 43.29 42.84 42.38 41.79 41.34 40.98 40.76 40.62 40.49 40.44 40.44 40.49 40.22 39.77 39.31 38.73 38.37 38.16 38.12 38.03 37.66
50.91 51.38 51.66 51.82 51.71 51.48 51.01 50.69 50.25 49.73 49.13 48.71 48.52 48.42 48.27 48.07 48.03 47.82 47.66 47.33 47.12 46.82 46.52 46.18 46.35 46.39 46.40 46.66 46.96 47.08 46.96 46.75 46.70 46.53 46.14 45.69 45.21 44.85 44.50 44.27 44.14 44.09 43.91 43.72 43.49 43.31 43.03 42.62 42.35 42.08 41.67 41.18 40.81 40.49 40.26 40.13 39.99 40.04 40.00 39.96 39.60 39.23 38.87 38.61 38.30 38.12 38.12 38.17 37.84
50.81 50.88 50.70 50.65 50.28 49.74 49.20 48.78 48.45 48.14 47.69 47.46 47.34 47.31 47.28 47.16 47.04 46.96 46.96 46.93 46.54 46.21 46.00 45.87 46.04 46.00 45.96 46.08 46.51 46.73 46.69 46.26 45.96 45.57 45.13 44.60 44.11 43.67 43.32 43.09 43.13 43.17 43.12 42.97 42.61 42.37 41.96 41.54 41.36 41.22 41.14 40.91 40.68 40.37 40.09 39.73 39.64 39.60 39.42 39.24 39.01 38.78 38.65 38.47 38.25 38.20 38.20 38.25 38.14
49.99 49.71 49.48 49.18 48.88 48.54 48.21 47.88 47.56 47.22 46.93 46.68 46.68 46.63 46.67 46.67 46.84 46.88 46.97 46.81 46.74 46.57 46.28 45.91 46.04 45.95 45.91 45.95 46.00 46.04 45.87 45.39 44.83 44.34 43.99 43.55 43.07 42.67 42.32 42.14 42.09 42.17 42.15 42.14 41.86 41.54 41.27 40.91 40.77 40.59 40.58 40.52 40.33 40.14 39.92 39.69 39.56 39.33 39.11 38.83 38.65 38.60 38.50 38.41 38.28 38.23 38.28 38.28 38.09
48.93 48.82 48.59 48.21 48.04 47.88 47.67 47.46 47.17 46.91 46.81 46.89 46.71 46.79 46.95 47.07 47.19 47.12 47.01 46.77 46.86 46.74 46.36 45.95 45.74 45.57 45.39 45.35 45.09 45.00 44.79 44.44 43.73 43.07 42.63 42.33 41.93 41.62 41.45 41.45 41.36 41.30 41.25 41.29 41.05 40.87 40.69 40.56 40.51 40.28 40.22 40.11 39.94 39.66 39.42 39.33 39.20 39.02 38.92 38.78 38.68 38.64 38.54 38.54 38.45 38.31 38.13 38.00 37.90
48.54 48.68 48.69 48.44 48.06 47.69 47.40 47.31 47.22 47.13 47.07 47.18 47.05 47.08 47.08 47.12 47.01 46.90 46.74 46.75 46.66 46.41 45.99 45.52 45.09 44.74 44.40 44.22 43.87 43.65 43.52 43.26 42.42 41.84 41.49 41.22 41.05 41.15 41.25 41.21 40.93 40.74 40.64 40.50 40.41 40.32 40.19 40.15 40.05 39.95 39.89 39.78 39.48 39.20 39.00 38.94 38.89 38.79 38.82 38.82 38.77 38.67 38.58 38.40 38.17 37.99 37.76 37.67 37.59
48.77 48.88 48.78 48.53 48.19 47.85 47.63 47.45 47.44 47.43 47.33 47.15 47.10 46.88 46.76 46.73 46.44 46.36 46.28 46.20 45.99 45.57 45.05 44.52 44.04 43.51 42.98 42.53 42.18 42.06 41.98 41.84 41.36 41.23 41.10 40.87 40.87 41.10 41.25 41.02 40.55 40.07 39.73 39.50 39.57 39.67 39.64 39.70 39.70 39.60 39.40 39.28 39.10 38.96 38.95 38.85 38.73 38.66 38.60 38.50 38.49 38.31 38.13 37.90 37.76 37.54 37.48 37.48 37.48
48.78 48.82 48.74 48.47 48.25 48.04 47.90 47.68 47.49 47.21 47.03 46.80 46.59 46.43 46.26 46.02 45.68 45.39 45.09 44.79 44.44 44.05 43.69 43.43 43.03 42.55 41.97 41.52 41.03 40.80 40.67 40.77 40.92 41.10 41.14 40.99 40.98 41.03 41.03 40.88 40.21 39.64 39.26 39.16 39.03 38.91 38.93 39.27 39.26 39.17 39.06 39.00 38.86 38.81 38.73 38.65 38.48 38.23 37.98 37.70 37.60 37.55 37.45 37.36 37.31 37.26 37.25 37.20 37.20
48.61 48.61 48.61 48.48 48.12 47.90 47.58 47.26 46.86 46.55 46.25 46.04 45.87 45.62 45.29 44.87 44.62 44.36 44.02 43.67 43.41 43.15 42.97 43.02 42.93 42.59 42.24 41.80 41.39 41.06 40.78 40.63 40.81 40.99 41.03 41.03 40.97 40.83 40.69 40.63 40.39 40.23 40.07 40.11 39.89 39.62 39.44 39.48 39.31 39.27 39.32 39.27 39.03 38.80 38.55 38.27 37.97 37.60 37.23 36.86 36.66 36.55 36.50 36.50 36.41 36.31 36.16 36.06 36.24
48.25 48.16 48.07 47.90 47.59 47.23 46.83 46.43 46.04 45.70 45.41 45.32 45.11 44.82 44.49 44.02 43.94 43.68 43.33 43.10 42.93 42.80 42.76 42.59 42.51 42.33 42.12 41.85 41.62 41.39 41.10 40.81 40.65 40.65 40.60 40.64 40.63 40.59 40.50 40.51 40.54 40.58 40.89 41.38 41.82 41.79 41.47 40.91 40.25 39.83 39.50 39.27 38.91 38.68 38.46 38.11 37.72 37.35 36.94 36.38 35.89 35.51 35.13 34.95 34.97 34.88 34.88 34.95 35.30
47.71 47.45 47.15 46.89 46.50 46.07 45.64 45.21 44.96 44.74 44.57 44.45 44.19 43.98 43.72 43.55 43.37 43.15 42.84 42.57 42.57 42.49 42.31 42.23 42.06 42.01 41.97 41.66 41.43 41.32 41.12 40.93 40.69 40.37 40.09 39.88 39.91 40.05 40.13 40.26 40.48 40.78 41.28 42.19 42.60 42.65 42.47 42.15 41.47 40.50 39.43 38.68 38.41 38.10 37.71 37.48 37.39 36.92 36.37 35.69 35.13 34.57 33.92 33.57 33.50 33.60 33.79 34.02 34.29
46.77 46.29 45.86 45.61 45.13 44.70 44.32 44.15 43.94 43.60 43.42 43.34 43.21 43.12 43.03 42.94 42.80 42.58 42.26 42.16 42.07 42.07 41.99 41.81 41.73 41.77 41.72 41.24 40.96 40.72 40.57 40.46 40.42 40.21 39.93 39.49 39.56 39.67 40.01 40.28 40.56 41.10 41.83 42.90 43.18 43.09 42.74 42.38 41.75 40.80 39.68 38.33 37.88 37.43 36.95 36.68 36.36 35.89 35.37 34.88 34.36 33.93 33.46 33.11 32.96 33.05 33.16 33.24 33.46
45.65 45.22 44.75 44.36 43.84 43.50 43.33 43.12 42.77 42.46 42.24 42.24 42.23 42.36 42.36 42.18 41.90 41.67 41.52 41.47 41.51 41.50 41.40 41.35 41.28 41.19 41.01 40.61 40.35 40.18 40.09 39.87 39.72 39.59 39.59 39.66 39.79 39.81 40.01 40.31 40.81 41.64 42.57 43.44 43.40 43.18 42.74 42.21 41.59 40.87 39.91 38.52 37.49 36.83 36.33 35.88 35.51 35.13 34.70 34.25 33.84 33.57 33.38 33.09 33.05 32.92 32.81 32.67 32.75
44.79 44.36 43.93 43.41 42.97 42.80 42.72 42.32 42.15 42.15 42.11 41.97 41.78 41.69 41.55 41.18 40.99 40.84 40.82 40.86 40.88 40.81 40.79 40.79 40.72 40.55 40.28 40.05 39.98 39.87 39.73 39.53 39.38 39.42 39.60 39.79 39.87 39.98 40.28 40.67 41.17 42.10 42.98 43.50 43.23 42.87 42.43 41.95 41.42 40.88 40.11 39.05 37.54 36.71 36.18 35.62 35.07 34.61 34.27 33.90 33.54 33.41 33.23 33.00 32.88 32.61 32.30 32.15 32.19
44.15 43.76 43.37 42.93 42.63 42.46 42.33 42.20 42.07 42.02 41.93 41.75 41.53 41.16 40.73 40.48 40.61 40.65 40.60 40.64 40.50 40.52 40.51 40.48 40.26 40.03 39.84 39.84 39.76 39.58 39.26 39.03 39.33 39.62 39.73 39.69 39.83 40.12 40.51 41.04 41.40 41.96 42.63 43.28 42.97 42.57 42.17 41.69 41.07 40.53 39.76 38.71 36.96 35.85 35.15 34.74 34.27 33.90 33.58 33.27 33.15 32.85 32.61 32.37 32.04 31.86 31.73 31.66 31.56
43.55 43.12 42.72 42.38 42.11 41.89 41.84 41.85 41.85 41.76 41.62 41.39 40.98 40.64 40.39 40.23 40.30 40.37 40.36 40.35 40.43 40.57 40.62 40.18 39.81 39.62 39.47 39.42 39.15 38.93 38.94 39.32 39.62 39.82 39.83 39.90 40.27 40.42 40.72 41.04 41.31 41.84 42.37 42.85 42.53 42.17 41.63 40.97 40.34 39.58 38.77 37.82 36.13 34.78 33.97 33.62 33.26 32.94 32.68 32.44 32.34 32.16 31.98 31.76 31.63 31.47 31.32 31.23 31.08
42.82 42.52 42.21 41.81 41.58 41.49 41.45 41.44 41.30 41.12 40.94 40.80 40.46 40.39 40.32 40.23 40.29 40.33 40.41 40.42 40.38 40.21 40.03 39.67 39.44 39.34 39.42 39.56 39.47 39.44 39.50 39.61 39.71 39.85 40.03 40.11 40.25 40.50 40.72 41.00 40.96 41.35 41.84 42.15 41.82 41.33 40.80 40.17 39.55 38.88 38.11 37.17 35.50 33.99 32.93 32.77 32.48 32.27 32.07 31.93 31.83 31.76 31.70 31.58 31.45 31.36 31.30 31.19 31.08
42.03 41.78 41.51 41.19 41.01 40.92 41.05 41.05 40.91 40.68 40.58 40.44 40.32 40.25 40.18 40.17 40.24 40.38 40.53 40.58 40.35 39.95 39.63 39.54 39.46 39.36 39.34 39.48 39.53 39.71 39.85 40.05 40.27 40.54 40.71 40.65 40.55 40.45 40.45 40.50 40.52 40.93 41.33 41.40 41.12 40.67 40.22 39.64 39.02 38.34 37.59 36.65 34.71 33.08 32.17 32.04 31.93 31.73 31.59 31.53 31.48 31.51 31.54 31.48 31.44 31.37 31.37 31.43 31.31
41.49 41.28 40.97 40.71 40.47 40.34 40.43 40.48 40.48 40.38 40.19 39.99 39.97 39.99 40.04 40.00 40.03 40.08 40.26 40.39 40.26 40.00 39.82 39.69 39.65 39.60 39.64 39.69 39.76 39.94 40.16 40.48 40.43 40.46 40.32 40.23 39.97 39.74 39.56 39.38 39.67 40.37 40.92 40.84 40.47 40.19 39.73 39.20 38.57 37.78 36.99 35.96 33.73 32.39 31.68 31.52 31.38 31.21 31.07 30.96 31.08 31.14 31.25 31.29 31.24 31.27 31.25 31.30 31.08
41.12 40.86 40.72 40.50 40.28 40.24 40.11 40.10 39.96 39.81 39.61 39.45 39.43 39.58 39.69 39.71 39.70 39.78 39.97 40.12 40.17 39.94 39.81 39.90 39.92 39.93 39.93 40.07 40.10 40.13 40.08 39.94 39.63 39.44 39.18 39.01 38.73 38.54 38.48 38.56 39.09 39.89 40.40 40.30 39.98 39.57 39.12 38.54 37.81 37.03 36.06 34.63 32.68 31.63 31.15 30.91 30.72 30.57 30.50 30.52 30.63 30.75 30.83 30.90 30.88 30.95 30.91 30.80 30.64
40.83 40.62 40.39 40.25 40.20 40.07 39.85 39.70 39.51 39.30 39.14 39.05 39.04 39.16 39.28 39.50 39.64 39.83 40.07 40.23 39.95 39.76 39.66 39.76 39.87 39.87 39.90 39.99 39.99 39.90 39.46 38.63 38.31 38.16 38.02 37.91 37.58 37.42 37.53 37.76 38.24 39.08 39.76 39.76 39.40 39.00 38.43 37.87 37.14 36.35 35.07 33.18 31.79 31.13 30.88 30.60 30.36 30.24 30.20 30.12 30.21 30.32 30.35 30.31 30.32 30.34 30.32 30.14 30.13
40.78 40.44 40.07 39.83 39.72 39.62 39.48 39.39 39.17 38.96 38.89 38.83 38.87 39.00 39.09 39.32 39.51 39.79 40.08 40.15 39.72 39.48 39.48 39.58 39.62 39.52 39.47 39.46 39.11 38.77 38.42 37.96 37.38 37.18 37.13 37.15 36.88 36.63 36.64 36.94 37.36 38.15 38.94 39.23 38.88 38.48 37.93 37.34 36.60 35.52 34.03 31.95 30.97 30.58 30.48 30.27 30.09 29.95 29.82 29.73 29.69 29.72 29.84 29.87 29.90 29.85 29.84 29.85 30.16
40.77 40.42 39.97 39.60 39.31 39.20 39.14 39.09 38.81 38.70 38.64 38.73 38.87 39.01 39.15 39.33 39.47 39.75 39.92 40.00 39.54 39.30 39.34 39.43 39.23 39.05 38.70 38.35 37.87 37.52 37.32 37.15 36.84 36.51 36.36 36.32 36.15 36.04 36.07 36.16 36.57 37.34 38.09 38.62 38.33 37.86 37.43 36.85 36.04 34.92 33.37 31.27 30.52 30.21 30.08 29.89 29.66 29.50 29.38 29.22 29.17 29.32 29.47 29.65 29.76 29.74 29.78 30.05 31.06
40.52 40.25 39.90 39.44 39.08 38.99 38.85 38.75 38.57 38.48 38.56 38.56 38.79 38.97 39.15 39.37 39.51 39.79 40.05 40.21 39.81 39.52 39.24 38.95 38.46 38.07 37.64 37.27 36.85 36.47 36.30 36.43 36.48 36.29 36.00 35.62 35.91 35.97 35.91 35.62 35.93 36.57 37.42 37.98 37.82 37.49 37.03 36.49 35.70 34.78 33.46 31.55 30.41 29.95 29.75 29.46 29.14 28.95 28.81 28.74 28.66 28.81 29.07 29.31 29.38 29.42 29.55 30.03 31.40
40.06 39.79 39.52 39.16 38.94 38.75 38.66 38.48 38.43 38.48 38.52 38.66 38.79 39.01 39.14 39.27 39.36 39.56 39.62 39.52 39.24 38.79 38.38 37.75 37.31 37.05 36.85 36.56 36.04 35.60 35.46 35.55 35.69 35.78 35.77 35.62 35.87 36.02 35.79 34.97 35.10 35.73 36.63 37.41 37.37 37.13 36.75 36.22 35.64 34.76 33.43 31.37 30.22 29.68 29.48 29.09 28.66 28.34 28.04 27.93 27.87 27.85 28.02 28.32 28.29 28.25 28.39 28.81 30.23
39.56 39.34 39.07 38.85 38.67 38.48 38.30 38.20 38.33 38.51 38.65 38.70 38.74 38.78 38.82 38.70 38.48 38.17 37.95 37.71 37.53 37.31 36.99 36.54 36.33 36.12 36.01 35.85 35.11 34.51 34.10 34.02 34.25 34.43 34.63 34.90 34.92 35.06 34.83 34.07 33.98 34.37 35.12 36.15 36.68 36.72 36.43 35.90 35.36 34.61 33.40 31.31 29.87 29.32 29.12 28.75 28.18 27.65 27.24 27.08 26.98 26.93 26.89 27.08 27.17 27.28 27.48 27.73 28.17
MSLP
1011.87 1011.83 1011.79 1011.71 1011.59 1011.55 1011.43 1011.35 1011.19 1011.11 1011.03 1010.99 1010.99 1010.87 1010.79 1010.79 1010.87 1010.91 1010.91 1010.95 1010.95 1010.87 1010.79 1010.83 1010.87 1010.95 1010.99 1011.11 1011.15 1011.27 1011.43 1011.43 1011.55 1011.63 1011.71 1011.87 1011.95 1011.99 1012.19 1012.63 1013.11 1013.43 1013.55 1013.55 1013.55 1013.71 1013.99 1014.31 1014.59 1014.87 1015.07 1015.23 1015.35 1015.47 1015.55 1015.55 1015.55 1015.71 1015.87 1015.95 1016.23 1016.47 1016.67 1016.83 1016.91 1016.99 1017.07 1017.11 1017.15
1011.87 1011.83 1011.71 1011.71 1011.59 1011.55 1011.47 1011.35 1011.23 1011.15 1010.99 1010.91 1010.87 1010.79 1010.75 1010.71 1010.71 1010.71 1010.83 1010.91 1010.91 1010.79 1010.71 1010.71 1010.71 1010.75 1010.87 1010.91 1011.11 1011.39 1011.63 1011.71 1011.63 1011.63 1011.67 1011.79 1011.87 1011.99 1012.15 1012.47 1012.83 1013.15 1013.43 1013.59 1013.71 1013.91 1014.15 1014.35 1014.59 1014.87 1015.11 1015.27 1015.43 1015.55 1015.63 1015.63 1015.59 1015.71 1015.83 1015.83 1015.95 1016.11 1016.35 1016.59 1016.71 1016.79 1016.87 1016.95 1017.03
1011.83 1011.79 1011.71 1011.67 1011.67 1011.59 1011.55 1011.43 1011.31 1011.19 1011.07 1010.87 1010.79 1010.71 1010.67 1010.63 1010.59 1010.59 1010.59 1010.59 1010.59 1010.63 1010.71 1010.79 1010.71 1010.67 1010.71 1010.87 1011.27 1011.59 1011.87 1011.99 1011.87 1011.83 1011.83 1011.95 1012.03 1012.15 1012.31 1012.59 1012.91 1013.27 1013.55 1013.71 1013.87 1014.07 1014.27 1014.43 1014.63 1014.87 1015.07 1015.27 1015.43 1015.55 1015.71 1015.75 1015.71 1015.79 1015.91 1015.99 1015.99 1016.03 1016.15 1016.27 1016.43 1016.59 1016.71 1016.79 1016.91
1011.75 1011.71 1011.67 1011.67 1011.67 1011.63 1011.55 1011.51 1011.39 1011.27 1011.15 1010.95 1010.83 1010.71 1010.63 1010.59 1010.55 1010.51 1010.47 1010.47 1010.47 1010.63 1010.75 1010.67 1010.59 1010.59 1010.75 1011.07 1011.43 1011.67 1011.87 1012.03 1012.03 1012.03 1012.07 1012.19 1012.27 1012.43 1012.67 1012.95 1013.19 1013.47 1013.71 1013.87 1014.07 1014.27 1014.43 1014.59 1014.79 1014.99 1015.15 1015.31 1015.47 1015.63 1015.79 1015.87 1015.91 1015.95 1015.99 1016.15 1016.23 1016.27 1016.27 1016.31 1016.47 1016.59 1016.71 1016.71 1016.83
1011.75 1011.71 1011.63 1011.59 1011.55 1011.51 1011.47 1011.43 1011.39 1011.27 1011.15 1010.99 1010.91 1010.75 1010.63 1010.51 1010.47 1010.43 1010.43 1010.43 1010.47 1010.47 1010.51 1010.51 1010.71 1010.95 1011.15 1011.35 1011.55 1011.79 1012.03 1012.15 1012.15 1012.23 1012.39 1012.51 1012.63 1012.87 1013.03 1013.19 1013.43 1013.71 1013.87 1014.03 1014.23 1014.43 1014.63 1014.79 1014.99 1015.15 1015.35 1015.47 1015.63 1015.75 1015.87 1015.99 1016.11 1016.15 1016.23 1016.35 1016.47 1016.51 1016.55 1016.59 1016.71 1016.79 1016.87 1016.87 1016.91
1011.79 1011.67 1011.59 1011.55 1011.47 1011.43 1011.43 1011.31 1011.31 1011.27 1011.15 1011.03 1010.99 1010.91 1010.79 1010.63 1010.47 1010.43 1010.43 1010.43 1010.35 1010.35 1010.47 1010.79 1011.07 1011.27 1011.43 1011.59 1011.79 1012.03 1012.27 1012.27 1012.27 1012.43 1012.59 1012.79 1012.95 1013.11 1013.27 1013.51 1013.71 1013.87 1014.03 1014.23 1014.43 1014.63 1014.79 1014.99 1015.19 1015.39 1015.55 1015.71 1015.83 1015.95 1016.07 1016.19 1016.27 1016.31 1016.43 1016.55 1016.59 1016.67 1016.71 1016.79 1016.87 1016.99 1017.03 1017.11 1017.11
1011.75 1011.71 1011.63 1011.59 1011.51 1011.43 1011.39 1011.27 1011.23 1011.15 1011.15 1011.07 1011.03 1010.99 1010.87 1010.71 1010.59 1010.47 1010.39 1010.35 1010.43 1010.59 1010.87 1011.15 1011.27 1011.35 1011.55 1011.79 1011.99 1012.15 1012.27 1012.39 1012.51 1012.63 1012.83 1012.99 1013.15 1013.35 1013.55 1013.71 1013.91 1014.07 1014.27 1014.43 1014.63 1014.79 1014.99 1015.15 1015.39 1015.55 1015.71 1015.87 1015.95 1016.11 1016.27 1016.39 1016.43 1016.51 1016.59 1016.67 1016.71 1016.79 1016.87 1016.95 1017.03 1017.15 1017.19 1017.27 1017.27
1011.79 1011.75 1011.71 1011.63 1011.55 1011.43 1011.39 1011.27 1011.23 1011.15 1011.15 1011.11 1011.03 1010.99 1010.87 1010.79 1010.71 1010.59 1010.47 1010.43 1010.71 1010.95 1011.15 1011.27 1011.35 1011.43 1011.63 1011.83 1012.03 1012.19 1012.43 1012.63 1012.79 1012.91 1012.99 1013.15 1013.35 1013.55 1013.75 1013.95 1014.15 1014.31 1014.47 1014.63 1014.79 1014.99 1015.15 1015.31 1015.55 1015.71 1015.87 1015.99 1016.11 1016.23 1016.35 1016.47 1016.59 1016.67 1016.75 1016.87 1016.95 1017.03 1017.11 1017.19 1017.27 1017.27 1017.31 1017.35 1017.35
1011.91 1011.83 1011.75 1011.67 1011.55 1011.43 1011.35 1011.27 1011.23 1011.19 1011.15 1011.11 1011.03 1010.99 1010.91 1010.87 1010.75 1010.71 1010.63 1010.59 1010.75 1010.91 1011.07 1011.27 1011.43 1011.55 1011.75 1011.99 1012.27 1012.47 1012.67 1012.83 1012.99 1013.11 1013.27 1013.35 1013.55 1013.75 1013.99 1014.15 1014.35 1014.59 1014.75 1014.87 1015.03 1015.15 1015.27 1015.47 1015.67 1015.87 1015.99 1016.11 1016.23 1016.35 1016.47 1016.59 1016.71 1016.87 1016.99 1017.07 1017.19 1017.31 1017.39 1017.43 1017.47 1017.47 1017.43 1017.43 1017.43
1011.99 1011.87 1011.79 1011.71 1011.55 1011.43 1011.35 1011.27 1011.19 1011.15 1011.15 1011.07 1011.03 1010.99 1010.95 1010.91 1010.87 1010.87 1010.83 1010.87 1010.87 1010.99 1011.19 1011.43 1011.59 1011.83 1012.11 1012.39 1012.63 1012.83 1012.95 1013.07 1013.19 1013.31 1013.47 1013.59 1013.83 1013.99 1014.19 1014.43 1014.59 1014.79 1014.95 1015.07 1015.19 1015.35 1015.47 1015.59 1015.79 1015.95 1016.11 1016.23 1016.35 1016.43 1016.59 1016.75 1016.91 1017.03 1017.15 1017.31 1017.43 1017.55 1017.63 1017.71 1017.71 1017.71 1017.71 1017.71 1017.71
1012.03 1011.95 1011.87 1011.71 1011.59 1011.43 1011.35 1011.27 1011.19 1011.15 1011.07 1010.99 1010.99 1011.07 1011.15 1011.15 1011.15 1011.11 1011.07 1011.07 1011.19 1011.35 1011.55 1011.71 1011.91 1012.15 1012.43 1012.67 1012.87 1013.03 1013.15 1013.27 1013.43 1013.59 1013.75 1013.95 1014.15 1014.27 1014.43 1014.63 1014.79 1014.99 1015.11 1015.27 1015.39 1015.51 1015.67 1015.79 1015.91 1016.07 1016.23 1016.35 1016.43 1016.59 1016.71 1016.87 1016.99 1017.15 1017.35 1017.51 1017.59 1017.75 1017.87 1017.99 1017.99 1018.03 1018.07 1018.11 1018.15
1012.03 1011.91 1011.83 1011.71 1011.55 1011.43 1011.39 1011.31 1011.23 1011.15 1011.11 1011.15 1011.27 1011.39 1011.47 1011.51 1011.47 1011.43 1011.39 1011.43 1011.63 1011.87 1012.07 1012.15 1012.31 1012.51 1012.71 1012.95 1013.15 1013.27 1013.43 1013.55 1013.71 1013.87 1014.03 1014.27 1014.43 1014.59 1014.71 1014.87 1014.99 1015.15 1015.27 1015.43 1015.51 1015.67 1015.79 1015.91 1016.03 1016.19 1016.35 1016.43 1016.59 1016.71 1016.83 1016.99 1017.15 1017.27 1017.43 1017.59 1017.75 1017.87 1018.03 1018.15 1018.23 1018.27 1018.35 1018.43 1018.43
1012.03 1011.87 1011.75 1011.63 1011.51 1011.43 1011.31 1011.27 1011.27 1011.27 1011.39 1011.47 1011.59 1011.71 1011.79 1011.87 1011.83 1011.79 1011.83 1011.95 1012.15 1012.31 1012.43 1012.59 1012.71 1012.87 1012.99 1013.19 1013.43 1013.55 1013.71 1013.83 1013.99 1014.15 1014.31 1014.51 1014.63 1014.75 1014.91 1015.03 1015.19 1015.31 1015.43 1015.55 1015.71 1015.83 1015.91 1016.03 1016.15 1016.27 1016.43 1016.55 1016.71 1016.83 1016.95 1017.11 1017.27 1017.39 1017.55 1017.67 1017.79 1017.95 1018.11 1018.23 1018.35 1018.43 1018.55 1018.59 1018.63
1011.99 1011.87 1011.71 1011.55 1011.47 1011.39 1011.31 1011.35 1011.43 1011.59 1011.75 1011.87 1011.95 1011.99 1012.11 1012.15 1012.15 1012.15 1012.19 1012.31 1012.47 1012.59 1012.75 1012.87 1013.03 1013.19 1013.35 1013.51 1013.67 1013.83 1013.99 1014.11 1014.27 1014.43 1014.59 1014.71 1014.83 1014.95 1015.11 1015.27 1015.35 1015.51 1015.63 1015.79 1015.91 1015.99 1016.07 1016.15 1016.23 1016.35 1016.51 1016.63 1016.79 1016.91 1017.03 1017.15 1017.27 1017.43 1017.59 1017.71 1017.83 1017.99 1018.11 1018.27 1018.39 1018.51 1018.59 1018.67 1018.71
1011.99 1011.87 1011.67 1011.55 1011.43 1011.43 1011.47 1011.59 1011.79 1011.95 1012.07 1012.19 1012.27 1012.35 1012.43 1012.47 1012.55 1012.55 1012.59 1012.71 1012.79 1012.91 1013.03 1013.19 1013.39 1013.55 1013.67 1013.79 1013.95 1014.07 1014.23 1014.35 1014.51 1014.67 1014.79 1014.87 1014.99 1015.15 1015.27 1015.43 1015.59 1015.75 1015.87 1015.99 1016.11 1016.15 1016.23 1016.27 1016.35 1016.43 1016.55 1016.71 1016.83 1016.99 1017.07 1017.19 1017.35 1017.47 1017.63 1017.75 1017.87 1017.99 1018.15 1018.27 1018.43 1018.51 1018.59 1018.63 1018.71
1012.03 1011.87 1011.75 1011.67 1011.63 1011.67 1011.79 1011.95 1012.11 1012.23 1012.35 1012.43 1012.59 1012.63 1012.71 1012.79 1012.87 1012.91 1012.99 1013.03 1013.15 1013.27 1013.39 1013.55 1013.71 1013.87 1013.95 1014.07 1014.15 1014.31 1014.43 1014.59 1014.71 1014.83 1014.91 1015.03 1015.19 1015.35 1015.55 1015.71 1015.87 1015.99 1016.07 1016.15 1016.27 1016.39 1016.43 1016.43 1016.51 1016.55 1016.63 1016.75 1016.87 1017.03 1017.19 1017.31 1017.43 1017.55 1017.71 1017.87 1017.99 1018.15 1018.27 1018.43 1018.59 1018.67 1018.71 1018.67 1018.71
1012.19 1012.11 1012.03 1011.99 1011.99 1012.11 1012.23 1012.31 1012.43 1012.55 1012.63 1012.75 1012.83 1012.91 1012.99 1013.07 1013.15 1013.23 1013.31 1013.39 1013.47 1013.59 1013.71 1013.83 1013.99 1014.07 1014.19 1014.27 1014.39 1014.51 1014.59 1014.71 1014.83 1014.95 1015.07 1015.27 1015.47 1015.67 1015.83 1015.95 1016.03 1016.15 1016.23 1016.31 1016.43 1016.55 1016.63 1016.71 1016.71 1016.75 1016.83 1016.91 1017.03 1017.19 1017.35 1017.47 1017.59 1017.71 1017.83 1017.95 1018.11 1018.27 1018.47 1018.67 1018.83 1018.91 1018.91 1018.83 1018.71
1012.43 1012.39 1012.35 1012.39 1012.43 1012.59 1012.67 1012.71 1012.75 1012.87 1012.95 1013.03 1013.11 1013.15 1013.27 1013.31 1013.43 1013.51 1013.59 1013.71 1013.75 1013.87 1013.99 1014.07 1014.15 1014.27 1014.39 1014.47 1014.55 1014.59 1014.71 1014.87 1014.99 1015.15 1015.35 1015.55 1015.71 1015.87 1015.99 1016.15 1016.27 1016.31 1016.39 1016.47 1016.59 1016.71 1016.83 1016.95 1016.99 1016.99 1017.07 1017.15 1017.27 1017.39 1017.55 1017.71 1017.79 1017.87 1017.91 1018.03 1018.15 1018.31 1018.59 1018.87 1019.07 1019.15 1019.15 1018.99 1018.79
1012.71 1012.71 1012.71 1012.83 1012.87 1012.91 1012.99 1013.03 1013.07 1013.15 1013.23 1013.27 1013.35 1013.43 1013.47 1013.55 1013.63 1013.71 1013.83 1013.95 1013.99 1014.11 1014.19 1014.27 1014.43 1014.51 1014.59 1014.63 1014.71 1014.83 1014.95 1015.11 1015.27 1015.47 1015.67 1015.79 1015.91 1016.03 1016.15 1016.27 1016.43 1016.47 1016.59 1016.63 1016.75 1016.87 1016.99 1017.11 1017.15 1017.23 1017.27 1017.35 1017.47 1017.59 1017.71 1017.87 1017.95 1017.99 1018.03 1018.11 1018.19 1018.35 1018.59 1018.91 1019.15 1019.27 1019.27 1019.19 1019.03
1013.03 1013.07 1013.11 1013.15 1013.19 1013.23 1013.27 1013.31 1013.39 1013.43 1013.47 1013.51 1013.55 1013.63 1013.71 1013.83 1013.87 1013.95 1014.07 1014.19 1014.27 1014.35 1014.43 1014.59 1014.67 1014.75 1014.87 1014.87 1014.99 1015.15 1015.27 1015.47 1015.67 1015.83 1015.95 1016.03 1016.15 1016.19 1016.31 1016.43 1016.55 1016.59 1016.67 1016.79 1016.91 1017.07 1017.19 1017.27 1017.35 1017.39 1017.43 1017.51 1017.67 1017.75 1017.87 1017.99 1018.03 1018.11 1018.19 1018.27 1018.39 1018.51 1018.71 1018.91 1019.15 1019.27 1019.39 1019.43 1019.43
1013.39 1013.43 1013.43 1013.43 1013.51 1013.55 1013.55 1013.59 1013.67 1013.71 1013.71 1013.75 1013.87 1013.95 1014.03 1014.15 1014.19 1014.27 1014.43 1014.51 1014.59 1014.67 1014.79 1014.87 1014.99 1015.11 1015.19 1015.27 1015.35 1015.51 1015.71 1015.87 1015.99 1016.15 1016.23 1016.31 1016.35 1016.43 1016.47 1016.51 1016.59 1016.71 1016.79 1016.95 1017.07 1017.23 1017.35 1017.43 1017.51 1017.59 1017.63 1017.71 1017.87 1017.95 1018.03 1018.11 1018.15 1018.19 1018.27 1018.43 1018.63 1018.79 1018.87 1018.99 1019.15 1019.31 1019.51 1019.71 1019.83
1013.71 1013.71 1013.75 1013.75 1013.79 1013.83 1013.87 1013.91 1013.91 1013.99 1013.99 1014.07 1014.15 1014.27 1014.35 1014.43 1014.55 1014.67 1014.75 1014.83 1014.95 1015.03 1015.15 1015.27 1015.39 1015.47 1015.59 1015.71 1015.83 1015.91 1016.03 1016.19 1016.31 1016.43 1016.51 1016.59 1016.59 1016.67 1016.71 1016.71 1016.75 1016.87 1016.99 1017.11 1017.27 1017.39 1017.51 1017.63 1017.71 1017.79 1017.87 1017.99 1018.11 1018.15 1018.23 1018.27 1018.27 1018.31 1018.43 1018.55 1018.71 1018.91 1019.07 1019.15 1019.19 1019.39 1019.63 1019.87 1020.11
1013.99 1013.99 1014.03 1014.07 1014.07 1014.11 1014.15 1014.15 1014.19 1014.23 1014.27 1014.35 1014.47 1014.59 1014.63 1014.75 1014.87 1014.99 1015.11 1015.15 1015.27 1015.39 1015.47 1015.59 1015.71 1015.87 1015.99 1016.11 1016.15 1016.27 1016.39 1016.43 1016.59 1016.71 1016.79 1016.83 1016.87 1016.91 1016.99 1016.99 1017.07 1017.15 1017.27 1017.39 1017.47 1017.59 1017.71 1017.79 1017.91 1017.99 1018.11 1018.23 1018.31 1018.43 1018.47 1018.51 1018.55 1018.59 1018.63 1018.71 1018.87 1018.99 1019.15 1019.19 1019.27 1019.47 1019.75 1019.99 1020.19
1014.19 1014.23 1014.23 1014.27 1014.31 1014.31 1014.31 1014.35 1014.43 1014.43 1014.55 1014.59 1014.71 1014.83 1014.95 1015.07 1015.15 1015.27 1015.35 1015.47 1015.55 1015.67 1015.75 1015.87 1015.99 1016.15 1016.27 1016.35 1016.43 1016.55 1016.63 1016.71 1016.83 1016.91 1016.99 1017.07 1017.11 1017.15 1017.23 1017.27 1017.35 1017.43 1017.55 1017.63 1017.71 1017.83 1017.91 1017.99 1018.11 1018.15 1018.27 1018.39 1018.55 1018.63 1018.71 1018.79 1018.87 1018.87 1018.95 1018.99 1019.07 1019.15 1019.27 1019.43 1019.55 1019.71 1019.91 1020.11 1020.27
1014.35 1014.39 1014.43 1014.47 1014.51 1014.55 1014.55 1014.59 1014.59 1014.71 1014.79 1014.87 1014.99 1015.11 1015.23 1015.31 1015.43 1015.55 1015.63 1015.71 1015.87 1015.95 1016.03 1016.15 1016.27 1016.39 1016.47 1016.59 1016.71 1016.79 1016.87 1016.95 1017.03 1017.11 1017.19 1017.27 1017.35 1017.39 1017.43 1017.51 1017.55 1017.67 1017.71 1017.79 1017.87 1017.99 1018.11 1018.19 1018.27 1018.31 1018.43 1018.59 1018.71 1018.83 1018.95 1019.03 1019.11 1019.19 1019.23 1019.27 1019.27 1019.31 1019.43 1019.63 1019.87 1020.07 1020.19 1020.23 1020.31
1014.55 1014.59 1014.63 1014.71 1014.75 1014.79 1014.83 1014.87 1014.91 1014.99 1015.11 1015.19 1015.27 1015.39 1015.47 1015.55 1015.71 1015.79 1015.87 1015.99 1016.11 1016.19 1016.27 1016.43 1016.51 1016.59 1016.71 1016.79 1016.87 1016.99 1017.07 1017.15 1017.23 1017.31 1017.43 1017.51 1017.55 1017.63 1017.67 1017.71 1017.71 1017.79 1017.83 1017.87 1017.95 1018.07 1018.15 1018.27 1018.43 1018.55 1018.63 1018.79 1018.87 1019.03 1019.15 1019.27 1019.39 1019.43 1019.47 1019.47 1019.43 1019.43 1019.55 1019.79 1020.07 1020.27 1020.43 1020.43 1020.47
1014.79 1014.87 1014.91 1014.99 1014.99 1015.07 1015.15 1015.19 1015.27 1015.31 1015.43 1015.51 1015.55 1015.67 1015.75 1015.87 1015.91 1015.99 1016.15 1016.23 1016.35 1016.43 1016.55 1016.59 1016.71 1016.79 1016.87 1016.99 1017.03 1017.15 1017.23 1017.35 1017.43 1017.51 1017.59 1017.63 1017.71 1017.79 1017.87 1017.87 1017.87 1017.87 1017.87 1017.87 1017.99 1018.11 1018.23 1018.39 1018.55 1018.71 1018.83 1018.95 1019.03 1019.15 1019.31 1019.43 1019.55 1019.59 1019.59 1019.63 1019.63 1019.67 1019.75 1019.99 1020.23 1020.43 1020.59 1020.67 1020.71
1014.99 1015.11 1015.19 1015.23 1015.27 1015.39 1015.43 1015.47 1015.55 1015.63 1015.71 1015.75 1015.83 1015.91 1015.99 1016.03 1016.15 1016.23 1016.31 1016.43 1016.51 1016.59 1016.71 1016.83 1016.91 1016.99 1017.07 1017.15 1017.23 1017.31 1017.43 1017.51 1017.55 1017.67 1017.71 1017.75 1017.87 1017.91 1017.99 1018.03 1018.03 1017.99 1017.95 1017.95 1018.03 1018.15 1018.31 1018.47 1018.63 1018.79 1018.95 1019.07 1019.23 1019.35 1019.43 1019.55 1019.63 1019.71 1019.79 1019.79 1019.83 1019.91 1020.03 1020.19 1020.43 1020.63 1020.71 1020.79 1020.87
1015.27 1015.35 1015.43 1015.43 1015.55 1015.63 1015.67 1015.71 1015.71 1015.79 1015.87 1015.91 1015.99 1016.07 1016.15 1016.19 1016.27 1016.39 1016.47 1016.59 1016.71 1016.79 1016.91 1016.99 1017.11 1017.19 1017.27 1017.31 1017.43 1017.51 1017.59 1017.67 1017.75 1017.79 1017.87 1017.87 1017.99 1018.07 1018.11 1018.11 1018.11 1018.03 1017.99 1018.03 1018.15 1018.27 1018.43 1018.55 1018.71 1018.87 1019.03 1019.19 1019.35 1019.47 1019.55 1019.67 1019.75 1019.87 1019.91 1019.99 1020.07 1020.15 1020.27 1020.43 1020.63 1020.75 1020.87 1020.87 1020.87
1015.55 1015.59 1015.67 1015.71 1015.75 1015.83 1015.87 1015.87 1015.95 1015.99 1016.03 1016.15 1016.19 1016.27 1016.31 1016.43 1016.47 1016.59 1016.67 1016.79 1016.87 1016.99 1017.11 1017.19 1017.27 1017.39 1017.43 1017.55 1017.63 1017.71 1017.75 1017.87 1017.87 1017.91 1017.95 1018.03 1018.11 1018.15 1018.19 1018.19 1018.19 1018.19 1018.19 1018.23 1018.31 1018.43 1018.59 1018.71 1018.83 1018.99 1019.15 1019.35 1019.51 1019.63 1019.75 1019.87 1019.91 1019.99 1020.11 1020.19 1020.27 1020.39 1020.51 1020.63 1020.75 1020.87 1020.91 1020.95 1020.95
1015.79 1015.87 1015.95 1015.99 1015.99 1015.99 1016.03 1016.11 1016.15 1016.19 1016.27 1016.35 1016.43 1016.51 1016.59 1016.63 1016.71 1016.83 1016.91 1016.99 1017.15 1017.23 1017.27 1017.35 1017.43 1017.55 1017.63 1017.71 1017.79 1017.87 1017.91 1017.99 1017.99 1018.03 1018.07 1018.15 1018.19 1018.27 1018.27 1018.31 1018.35 1018.35 1018.39 1018.39 1018.51 1018.63 1018.75 1018.91 1019.03 1019.19 1019.35 1019.51 1019.63 1019.75 1019.87 1019.99 1020.03 1020.15 1020.23 1020.35 1020.43 1020.55 1020.67 1020.79 1020.87 1020.91 1020.99 1020.99 1020.99
1016.03 1016.11 1016.15 1016.19 1016.23 1016.27 1016.27 1016.31 1016.39 1016.43 1016.55 1016.59 1016.67 1016.71 1016.83 1016.87 1016.99 1017.07 1017.15 1017.19 1017.27 1017.39 1017.47 1017.55 1017.63 1017.71 1017.79 1017.87 1017.95 1017.99 1018.03 1018.07 1018.15 1018.19 1018.23 1018.27 1018.31 1018.39 1018.43 1018.43 1018.51 1018.59 1018.59 1018.63 1018.75 1018.87 1018.99 1019.15 1019.27 1019.35 1019.47 1019.59 1019.71 1019.87 1019.99 1020.07 1020.15 1020.27 1020.39 1020.51 1020.59 1020.71 1020.79 1020.87 1020.95 1020.99 1021.03 1021.07 1021.11
1016.27 1016.31 1016.35 1016.35 1016.43 1016.43 1016.47 1016.55 1016.63 1016.67 1016.71 1016.79 1016.87 1016.95 1016.99 1017.07 1017.15 1017.27 1017.31 1017.39 1017.43 1017.55 1017.63 1017.71 1017.75 1017.87 1017.95 1017.99 1018.07 1018.15 1018.15 1018.19 1018.27 1018.31 1018.39 1018.43 1018.47 1018.55 1018.59 1018.71 1018.75 1018.83 1018.87 1018.91 1018.99 1019.11 1019.19 1019.27 1019.39 1019.51 1019.59 1019.71 1019.83 1019.99 1020.07 1020.15 1020.27 1020.43 1020.55 1020.67 1020.75 1020.87 1020.95 1021.03 1021.11 1021.15 1021.15 1021.15 1021.19
1016.43 1016.51 1016.55 1016.59 1016.59 1016.67 1016.71 1016.75 1016.83 1016.87 1016.91 1016.99 1017.07 1017.15 1017.19 1017.27 1017.31 1017.43 1017.51 1017.59 1017.63 1017.71 1017.75 1017.83 1017.87 1017.99 1018.07 1018.15 1018.23 1018.27 1018.31 1018.39 1018.43 1018.51 1018.59 1018.63 1018.67 1018.71 1018.83 1018.91 1018.99 1019.03 1019.07 1019.15 1019.19 1019.27 1019.39 1019.43 1019.55 1019.59 1019.71 1019.79 1019.91 1020.07 1020.15 1020.23 1020.39 1020.55 1020.71 1020.79 1020.91 1020.99 1021.07 1021.15 1021.19 1021.19 1021.23 1021.27 1021.27
1016.67 1016.67 1016.71 1016.75 1016.79 1016.87 1016.91 1016.99 1017.03 1017.07 1017.15 1017.19 1017.27 1017.35 1017.43 1017.47 1017.55 1017.59 1017.71 1017.75 1017.83 1017.87 1017.91 1017.99 1018.03 1018.11 1018.15 1018.23 1018.35 1018.43 1018.47 1018.59 1018.67 1018.75 1018.83 1018.87 1018.91 1018.99 1019.03 1019.15 1019.23 1019.27 1019.27 1019.31 1019.39 1019.47 1019.55 1019.63 1019.67 1019.71 1019.83 1019.91 1020.03 1020.15 1020.27 1020.35 1020.51 1020.67 1020.83 1020.91 1020.99 1021.11 1021.19 1021.23 1021.27 1021.27 1021.27 1021.27 1021.27
1016.83 1016.87 1016.87 1016.87 1016.95 1017.03 1017.15 1017.19 1017.27 1017.31 1017.35 1017.43 1017.47 1017.55 1017.59 1017.67 1017.71 1017.79 1017.87 1017.91 1017.95 1017.99 1018.03 1018.15 1018.15 1018.23 1018.27 1018.39 1018.51 1018.63 1018.71 1018.87 1018.95 1019.03 1019.11 1019.15 1019.15 1019.19 1019.27 1019.39 1019.43 1019.47 1019.51 1019.55 1019.63 1019.71 1019.75 1019.79 1019.87 1019.87 1019.99 1020.11 1020.23 1020.27 1020.39 1020.51 1020.63 1020.79 1020.91 1020.99 1021.11 1021.19 1021.23 1021.27 1021.31 1021.31 1021.35 1021.35 1021.35
1016.99 1017.03 1017.03 1017.07 1017.15 1017.23 1017.31 1017.39 1017.47 1017.51 1017.55 1017.63 1017.67 1017.71 1017.79 1017.87 1017.91 1017.95 1017.99 1018.03 1018.07 1018.15 1018.19 1018.27 1018.27 1018.39 1018.47 1018.59 1018.71 1018.87 1018.99 1019.07 1019.15 1019.27 1019.31 1019.39 1019.43 1019.43 1019.47 1019.55 1019.67 1019.71 1019.71 1019.79 1019.87 1019.91 1019.95 1019.99 1020.07 1020.11 1020.15 1020.27 1020.35 1020.43 1020.55 1020.67 1020.83 1020.91 1020.99 1021.07 1021.19 1021.23 1021.27 1021.35 1021.35 1021.39 1021.43 1021.43 1021.43
1017.23 1017.27 1017.27 1017.27 1017.39 1017.43 1017.55 1017.59 1017.63 1017.71 1017.71 1017.79 1017.87 1017.87 1017.91 1017.99 1018.03 1018.11 1018.15 1018.15 1018.19 1018.27 1018.31 1018.39 1018.47 1018.59 1018.71 1018.79 1018.95 1019.15 1019.23 1019.27 1019.39 1019.43 1019.55 1019.59 1019.63 1019.63 1019.67 1019.75 1019.87 1019.95 1019.99 1019.99 1020.07 1020.15 1020.19 1020.23 1020.31 1020.39 1020.43 1020.47 1020.55 1020.63 1020.71 1020.83 1020.95 1020.99 1021.11 1021.19 1021.27 1021.31 1021.39 1021.43 1021.43 1021.47 1021.47 1021.47 1021.47
1017.43 1017.43 1017.47 1017.55 1017.59 1017.67 1017.71 1017.79 1017.87 1017.87 1017.87 1017.91 1017.99 1017.99 1018.03 1018.07 1018.15 1018.19 1018.23 1018.27 1018.27 1018.35 1018.43 1018.59 1018.71 1018.87 1018.99 1019.07 1019.19 1019.35 1019.51 1019.55 1019.63 1019.67 1019.71 1019.83 1019.87 1019.87 1019.87 1019.99 1020.07 1020.15 1020.23 1020.23 1020.27 1020.31 1020.39 1020.43 1020.51 1020.59 1020.67 1020.71 1020.79 1020.83 1020.87 1020.99 1021.03 1021.15 1021.23 1021.27 1021.35 1021.43 1021.43 1021.47 1021.51 1021.55 1021.55 1021.55 1021.51
1017.55 1017.55 1017.63 1017.71 1017.79 1017.87 1017.91 1017.99 1017.99 1018.03 1018.03 1018.03 1018.07 1018.11 1018.15 1018.23 1018.27 1018.31 1018.39 1018.43 1018.51 1018.59 1018.67 1018.83 1018.99 1019.11 1019.23 1019.31 1019.43 1019.59 1019.75 1019.87 1019.95 1019.95 1019.99 1020.03 1020.07 1020.11 1020.15 1020.23 1020.31 1020.39 1020.43 1020.43 1020.43 1020.51 1020.55 1020.59 1020.67 1020.71 1020.83 1020.91 1020.99 1020.99 1021.03 1021.11 1021.15 1021.27 1021.35 1021.39 1021.43 1021.47 1021.51 1021.51 1021.55 1021.55 1021.55 1021.59 1021.55
1017.71 1017.71 1017.79 1017.87 1017.91 1017.99 1018.03 1018.11 1018.15 1018.19 1018.19 1018.19 1018.23 1018.27 1018.31 1018.39 1018.47 1018.55 1018.63 1018.71 1018.79 1018.87 1018.95 1019.11 1019.23 1019.35 1019.47 1019.59 1019.71 1019.87 1019.99 1020.15 1020.23 1020.27 1020.27 1020.27 1020.27 1020.35 1020.43 1020.47 1020.55 1020.59 1020.63 1020.63 1020.63 1020.67 1020.71 1020.75 1020.83 1020.91 1020.99 1021.11 1021.11 1021.11 1021.15 1021.19 1021.23 1021.31 1021.43 1021.43 1021.51 1021.55 1021.55 1021.59 1021.59 1021.55 1021.55 1021.63 1021.63
Wind_Speed
4 4 4 4 4 4 4 4 4 4 4 4 4 5 4 4 4 4 4 4 4 4 4 4 4 4 4 6 7 7 6 6 6 6 6 6 5 5 5 5 6 7 7 5 4 5 6 6 5 3 3 2 3 2 2 1 3 5 6 7 7 7 7 7 6 6 6 5 4
4 4 4 4 5 4 4 4 4 4 4 4 4 4 4 4 4 4 4 5 5 5 4 4 4 4 5 5 5 4 5 5 5 5 5 4 4 3 4 4 5 4 3 4 6 6 6 6 5 4 3 3 3 3 2 2 3 5 6 7 7 7 7 8 7 7 7 6 4
3 3 3 4 4 4 4 4 5 5 5 5 4 4 4 4 4 4 4 4 4 4 4 4 4 4 4 3 3 4 6 7 5 3 1 1 2 4 5 6 6 6 6 6 6 6 5 5 5 4 4 3 3 3 3 2 3 4 5 5 4 5 6 6 6 6 6 5 5
4 3 3 3 4 4 4 4 5 6 6 5 5 5 4 4 4 4 4 3 3 3 4 5 4 3 3 2 3 5 6 6 4 1 4 6 7 8 9 9 9 8 8 7 7 6 5 5 4 3 3 3 3 3 3 2 3 3 3 3 2 3 3 4 4 4 4 4 4
4 3 2 2 3 4 4 4 5 5 6 5 5 5 4 4 4 4 4 3 3 4 5 4 3 3 3 2 3 4 4 3 1 4 7 9 9 9 9 9 9 8 7 7 7 6 6 5 3 3 2 2 2 2 2 2 2 2 2 2 2 2 2 2 2 2 2 3 3
3 2 2 2 3 3 3 3 4 5 5 5 5 6 6 4 4 4 5 4 4 3 2 2 2 3 4 4 4 3 1 3 6 8 8 9 8 9 9 9 8 7 6 6 7 6 6 5 3 3 2 2 2 2 2 3 2 2 2 2 2 2 2 2 2 2 2 3 3
2 3 3 4 4 4 3 3 3 4 4 4 6 7 7 7 6 6 6 6 4 2 3 3 2 1 1 3 1 2 4 6 8 8 9 8 8 8 9 8 8 7 7 6 6 6 5 5 3 3 3 3 2 3 3 3 2 2 2 2 2 1 2 2 2 2 3 4 5
3 3 4 4 5 5 4 4 3 3 3 4 5 6 7 8 8 7 5 3 1 2 2 2 2 2 2 4 6 7 8 8 8 8 7 8 8 9 8 8 8 7 7 6 6 6 5 4 3 3 3 2 2 2 2 3 2 2 2 1 1 1 1 1 2 2 4 5 6
4 4 4 5 5 5 5 5 4 4 4 4 5 6 7 7 7 5 3 2 3 3 3 3 4 7 8 9 9 8 8 8 8 7 7 8 8 8 8 8 8 7 6 6 6 6 5 4 3 3 3 2 2 2 2 3 2 2 2 2 2 2 1 1 2 2 3 5 5
4 4 4 5 6 6 6 5 5 4 4 5 6 5 5 5 5 4 3 3 4 4 5 5 8 10 11 10 9 8 7 7 8 8 8 8 8 8 8 7 7 6 6 5 5 5 5 4 3 3 3 3 3 3 3 3 3 3 3 3 3 3 2 2 2 2 2 3 4
5 4 4 4 6 6 6 5 4 4 4 4 4 2 4 7 6 6 5 5 7 8 9 9 10 10 10 9 8 8 7 7 8 8 8 8 8 8 7 7 7 6 6 5 4 4 4 4 4 5 5 4 4 4 4 4 4 4 4 3 4 4 3 3 3 3 3 3 4
5 5 5 5 6 6 6 5 4 3 3 2 4 6 8 8 8 9 9 11 11 11 11 10 10 9 9 8 8 8 8 8 8 8 8 8 8 8 7 7 6 6 6 5 4 4 4 4 5 6 6 5 4 4 4 5 5 5 5 4 4 4 4 4 4 3 3 4 5
5 5 5 5 6 6 5 4 3 2 4 7 8 8 8 8 9 10 11 11 11 10 9 9 9 9 8 8 8 8 8 8 8 8 8 8 7 7 7 7 7 7 6 5 5 4 5 5 6 6 6 6 5 5 5 6 5 5 5 5 5 5 5 5 4 4 5 5 5
5 5 5 5 5 4 3 2 3 5 8 9 9 8 8 8 8 8 9 9 9 9 9 9 9 9 8 9 8 8 8 8 8 8 8 8 8 8 8 8 8 7 6 6 6 6 6 6 6 7 7 7 6 6 6 6 5 5 5 5 5 5 5 5 5 6 6 7 6
5 5 5 4 3 2 3 5 6 7 8 8 8 7 7 7 7 8 8 9 9 9 9 9 8 9 9 9 9 9 9 9 9 9 9 9 9 9 9 8 8 8 7 6 6 6 7 7 7 7 7 7 7 7 6 6 6 5 5 5 6 6 6 6 6 6 7 8 8
4 5 5 5 5 6 7 8 7 7 8 8 8 7 7 7 7 7 8 8 8 8 8 8 8 8 8 8 8 8 8 8 9 9 9 10 9 9 9 9 8 8 8 7 7 7 7 6 7 7 8 8 8 7 7 7 6 6 6 6 6 6 6 6 6 7 7 9 9
5 6 7 8 10 10 10 8 7 7 8 8 8 7 7 6 6 7 8 8 7 7 8 8 7 7 7 7 7 8 8 8 9 9 9 9 9 9 9 8 8 8 8 8 8 7 7 6 6 7 8 8 8 8 8 7 7 7 8 8 8 8 7 7 6 6 7 8 9
7 8 9 10 10 10 10 9 9 9 9 9 8 7 7 7 7 7 7 7 7 8 8 8 7 7 7 7 7 7 8 9 9 9 9 9 9 9 8 8 8 7 7 8 8 8 8 7 7 7 8 8 8 8 8 8 8 8 9 9 9 9 8 7 5 5 5 6 8
9 9 9 10 9 9 10 10 9 9 9 8 8 8 8 8 8 8 8 8 8 9 9 8 8 8 8 9 8 8 8 9 9 9 8 8 8 8 8 8 7 7 7 8 8 8 8 7 8 8 8 8 8 8 8 8 8 9 9 9 9 9 8 7 5 4 4 5 7
9 9 9 8 9 9 9 10 9 9 9 9 9 10 10 10 10 10 10 10 10 10 10 9 9 9 9 9 10 9 9 8 8 8 7 7 7 7 8 8 7 7 7 7 7 7 7 7 8 8 9 9 9 8 8 8 8 8 8 8 8 8 8 7 6 5 5 5 6
8 9 9 9 9 9 9 9 9 9 9 10 10 11 11 11 11 11 11 11 10 10 10 10 10 9 9 9 10 9 8 7 7 7 6 6 6 6 7 7 7 7 7 7 7 7 7 7 8 8 8 9 8 8 8 8 8 8 8 8 7 7 7 7 7 7 6 5 5
8 9 9 9 10 10 10 9 9 9 9 10 10 11 11 11 11 11 11 10 10 10 10 10 10 9 9 9 9 8 8 7 7 6 6 5 5 6 6 6 7 7 7 7 7 7 7 7 7 7 7 7 7 7 7 8 8 8 9 8 8 8 8 8 8 8 7 6 5
8 8 8 9 9 9 9 8 8 9 9 10 10 11 11 11 11 10 10 10 10 10 9 9 9 9 9 8 8 8 8 7 7 7 7 6 6 6 6 6 7 7 7 6 6 6 7 7 7 7 7 7 7 7 7 7 7 8 8 9 9 8 8 8 8 8 8 7 6
7 7 7 7 8 8 8 8 8 9 10 10 11 11 11 11 10 10 10 10 10 10 9 9 9 9 9 9 9 8 8 8 8 8 8 7 7 7 7 6 7 6 6 5 6 6 6 6 6 6 6 6 6 6 6 6 6 7 7 8 8 9 9 9 9 8 8 7 6
8 8 8 8 8 8 8 9 10 10 10 11 11 11 11 11 11 10 10 10 10 10 10 10 9 9 8 8 9 9 8 8 8 8 8 8 7 7 6 6 5 5 5 6 9 10 9 8 6 6 5 6 6 6 6 6 6 6 6 7 8 9 9 10 9 8 7 7 6
8 9 9 9 10 10 10 10 10 11 11 11 11 11 11 10 10 10 10 10 10 10 9 9 8 8 8 8 8 8 8 8 8 8 8 7 7 6 6 5 4 4 4 7 11 12 12 12 10 8 6 5 6 6 6 6 6 6 7 7 8 9 9 9 8 7 7 6 6
9 9 10 10 10 10 10 10 10 10 10 10 10 11 10 10 9 10 10 10 9 9 9 8 8 8 7 7 8 8 8 7 7 7 7 7 6 6 5 4 4 3 5 9 12 13 13 14 13 11 9 6 6 6 6 6 6 7 7 7 8 8 9 8 7 7 6 6 5
9 9 9 10 10 10 9 9 9 9 9 9 10 10 10 10 10 9 9 9 9 8 7 7 7 6 5 6 7 7 7 7 6 6 6 6 6 6 5 4 3 4 7 12 13 14 14 14 14 13 11 8 6 6 6 6 6 6 6 7 7 8 8 7 6 6 5 5 4
9 9 9 9 9 9 9 9 9 9 9 9 9 9 9 9 9 9 9 8 8 7 6 5 5 5 5 6 6 7 6 6 5 5 6 6 6 5 4 4 4 7 11 14 15 15 14 14 15 14 13 10 7 5 5 5 6 6 6 6 6 7 7 6 5 5 4 4 4
9 9 8 9 9 9 9 9 9 9 9 8 9 9 9 8 9 9 9 9 8 7 6 5 5 5 6 6 5 5 5 5 5 5 6 6 6 5 5 5 5 8 11 15 15 15 15 15 15 15 14 12 9 6 5 5 6 6 6 6 6 7 7 6 5 5 4 4 4
8 8 8 8 9 9 9 9 9 9 9 8 8 9 8 8 8 8 7 7 6 6 6 6 7 7 6 5 4 4 4 4 5 5 6 6 6 6 6 6 7 9 12 16 16 15 15 15 15 15 15 13 10 7 6 6 6 6 6 6 6 6 6 5 5 5 4 4 4
8 8 8 9 9 9 9 9 9 8 8 9 8 8 8 8 7 6 6 5 6 6 6 6 7 7 6 5 5 5 5 5 5 5 6 6 6 7 7 8 9 11 13 16 16 16 15 15 16 16 15 14 11 9 7 7 7 7 7 7 7 6 6 5 4 4 4 4 3
8 8 8 8 8 8 8 8 8 8 8 8 8 8 7 7 6 6 6 5 5 6 6 7 7 7 6 5 5 6 6 6 6 7 7 7 7 8 9 9 9 11 14 16 15 15 15 15 16 16 16 14 11 9 7 7 7 6 6 7 6 6 6 5 4 4 3 3 2
7 8 8 8 8 8 8 8 8 8 8 8 8 7 7 6 6 6 6 5 5 5 5 5 6 6 5 5 5 6 7 7 7 8 8 9 9 9 9 8 7 10 13 15 15 15 15 15 15 16 15 14 10 8 7 8 7 6 6 6 6 5 5 4 4 3 2 2 1
6 7 8 8 8 8 8 8 8 8 8 8 7 7 7 6 6 6 5 5 5 5 5 5 5 5 5 6 6 7 8 9 9 10 10 10 11 11 10 9 9 11 14 14 14 14 14 15 15 15 14 11 8 7 7 8 7 7 7 6 5 5 4 3 3 2 2 2 2
6 7 7 8 8 8 8 8 8 8 8 7 7 7 6 6 5 5 5 5 5 5 5 5 5 6 6 7 8 9 10 11 11 11 11 11 11 11 10 9 9 11 13 14 14 14 14 14 14 14 12 9 7 6 6 7 6 6 6 6 5 4 3 3 2 2 3 3 3
6 7 8 8 8 8 8 8 8 7 7 7 6 6 5 5 5 5 5 5 5 6 6 6 6 7 8 9 9 10 10 10 11 11 10 10 10 10 10 9 9 10 11 13 13 13 13 13 13 12 10 7 6 6 6 5 5 5 5 5 4 3 3 2 3 3 3 3 4
7 7 8 8 8 7 7 7 7 7 7 6 5 5 5 5 4 4 5 5 5 6 6 7 8 9 10 10 11 11 10 10 10 10 10 10 9 9 9 9 8 8 9 12 12 12 12 13 12 11 9 6 5 5 5 4 4 4 4 4 3 3 3 2 2 2 3 3 4
7 7 7 7 7 7 7 7 6 6 6 6 5 5 5 4 4 4 4 4 5 6 7 8 9 10 10 11 10 10 10 10 10 10 9 9 9 9 9 8 7 8 9 11 12 12 12 12 12 11 9 7 5 4 4 4 4 4 4 3 3 2 2 1 1 1 2 2 3
7 7 7 7 7 7 6 6 6 5 5 5 5 6 5 5 5 5 5 5 6 7 8 10 10 10 10 10 10 10 10 9 9 9 9 8 9 10 10 8 7 7 9 10 11 12 12 12 12 11 9 6 4 3 3 3 4 3 3 2 2 1 1 0 0 0 1 1 1
6 7 7 7 7 6 6 6 6 5 5 5 6 6 6 6 6 7 7 7 7 8 8 9 10 10 10 10 9 9 10 9 8 8 8 8 9 9 9 7 7 7 7 9 11 11 11 11 11 10 8 5 3 3 3 3 3 3 3 2 2 1 1 0 0 0 0 1 1
Wind_Direction
295 292 291 289 287 284 282 278 274 268 261 256 257 258 258 254 244 241 241 243 237 228 220 217 217 213 204 193 192 196 201 204 204 205 207 207 204 199 199 212 227 232 231 213 145 113 102 101 102 101 99 100 102 97 91 92 136 147 152 151 151 152 155 159 163 164 164 165 160
282 282 283 285 287 287 287 286 284 280 274 266 260 258 259 260 255 249 242 238 239 235 229 224 219 214 206 196 200 221 239 237 218 206 201 204 203 193 183 185 197 194 169 124 107 105 110 116 119 121 123 121 122 122 125 129 136 147 155 158 158 158 160 166 171 171 168 165 154
268 267 269 273 278 280 282 283 283 282 281 276 269 262 258 258 260 258 249 231 228 234 243 241 227 215 207 204 235 259 263 257 245 227 171 78 67 75 87 99 100 98 97 99 102 108 115 121 124 130 136 141 139 140 141 147 143 146 151 158 160 162 165 170 172 170 167 163 152
268 260 253 252 260 266 270 275 280 283 285 284 279 270 261 254 255 257 257 250 230 227 229 229 228 225 223 222 235 245 251 253 255 41 62 58 59 65 71 77 83 87 90 94 98 102 107 111 112 119 130 142 146 147 148 154 151 145 144 148 158 167 171 169 167 166 165 159 149
270 265 255 245 249 253 260 267 275 280 284 288 288 283 273 258 251 250 252 256 240 225 220 229 249 279 297 290 252 245 247 252 52 68 70 68 69 71 76 81 85 89 93 96 99 101 101 98 95 99 110 127 136 139 139 141 143 138 134 135 154 168 170 159 156 157 155 148 136
271 285 294 291 276 268 264 264 269 274 280 286 289 289 286 277 261 248 242 243 242 245 260 326 333 321 303 291 274 262 254 67 76 79 80 78 77 77 78 79 82 85 89 94 97 99 96 89 88 89 92 92 92 99 111 124 134 138 141 148 165 169 165 158 150 145 141 138 129
306 317 315 309 301 293 283 273 271 274 278 282 285 286 287 287 281 267 253 245 253 302 3 24 22 352 280 253 227 97 81 74 77 79 81 82 79 78 77 77 78 79 81 86 90 91 89 85 84 84 86 84 84 94 109 129 140 147 155 166 169 168 163 159 149 145 146 145 139
328 321 311 302 297 293 288 282 279 278 279 280 280 282 285 290 293 290 282 266 1 49 54 59 53 55 70 90 89 86 82 81 80 79 80 82 80 78 77 76 75 75 75 77 82 84 85 82 81 82 84 86 91 104 121 138 144 151 156 154 121 116 135 142 147 152 155 152 146
317 308 301 296 292 288 283 279 275 271 270 270 272 277 285 297 310 319 337 58 83 89 88 81 74 70 69 71 74 77 79 81 81 78 76 76 77 77 77 76 75 74 73 73 77 80 81 80 77 76 77 79 85 97 114 130 134 131 116 86 69 60 65 92 132 149 152 149 144
301 296 292 290 287 284 282 280 274 268 262 260 265 275 298 336 353 10 37 71 81 78 73 75 76 75 73 71 72 73 75 76 75 74 72 73 75 76 78 79 79 78 77 75 77 78 79 78 75 72 69 68 76 86 99 111 109 98 85 71 71 68 64 61 91 114 125 130 129
292 287 283 280 280 280 281 281 278 272 265 262 275 325 22 31 32 38 49 59 62 61 62 67 73 76 77 75 74 74 74 75 75 74 73 73 74 76 78 81 82 83 82 79 79 79 79 80 80 77 74 70 73 82 90 95 92 87 81 76 80 79 74 64 66 74 86 95 101
289 284 278 274 273 274 274 273 274 281 297 334 30 46 49 44 45 51 57 60 62 61 61 61 66 71 74 75 73 73 74 75 76 77 76 76 77 78 79 80 82 82 82 79 78 80 83 85 87 85 82 76 75 79 84 87 88 89 90 91 91 91 88 81 75 74 77 84 88
288 282 277 271 269 267 267 267 281 352 32 45 53 55 54 48 49 56 63 66 67 66 64 61 63 65 69 73 73 74 75 76 77 78 78 78 80 81 80 80 79 78 76 73 75 80 86 90 92 92 90 84 81 81 83 87 93 99 103 106 106 106 105 101 95 92 91 92 93
288 283 277 271 269 269 275 307 32 50 54 55 55 55 53 49 50 56 64 69 70 70 69 66 64 65 68 72 74 76 76 77 78 79 80 81 81 80 79 77 75 74 73 72 74 80 88 94 96 97 97 94 91 89 90 93 100 106 111 115 117 117 116 113 110 108 107 105 102
293 292 292 293 298 325 23 49 57 60 60 58 55 53 52 50 49 54 60 66 68 70 71 71 70 70 71 74 77 78 79 81 82 84 84 83 81 79 78 77 76 77 77 78 78 82 87 93 98 101 102 101 100 99 99 101 105 108 112 115 117 117 117 116 117 118 119 118 114
315 327 340 356 19 38 51 57 60 61 60 58 57 56 55 54 53 56 60 65 68 71 73 75 77 77 77 78 80 83 85 86 87 86 85 82 80 79 80 81 82 83 84 85 85 85 87 90 96 100 103 104 103 103 103 103 104 104 105 106 107 108 109 113 117 122 125 125 122
2 12 22 33 43 49 53 56 57 58 58 57 57 58 59 59 59 60 63 66 71 75 77 79 81 83 84 84 85 87 88 88 86 85 84 84 84 84 84 85 86 88 90 91 91 90 89 89 92 96 99 101 100 100 100 100 100 100 101 101 100 100 101 105 112 119 124 125 122
29 32 37 43 49 52 53 54 56 57 57 57 57 59 60 62 64 65 66 67 72 76 78 79 79 81 83 84 84 84 84 84 84 85 86 89 90 90 90 89 90 92 93 95 95 95 94 93 92 93 95 96 97 97 98 99 100 101 102 101 100 100 99 100 104 110 115 116 113
37 39 41 44 48 52 55 56 56 57 57 57 57 58 60 61 63 65 66 65 68 71 74 75 75 76 77 80 80 79 80 82 84 87 90 93 94 94 95 95 94 94 94 95 95 96 97 97 97 96 96 97 98 99 101 103 105 105 105 104 104 104 104 103 100 96 94 97 100
40 42 43 45 49 53 55 56 56 57 57 58 58 59 60 61 62 64 65 65 65 66 69 71 71 72 72 74 76 77 77 80 83 86 89 92 95 98 100 102 100 98 96 95 96 97 99 100 100 101 101 102 104 105 107 109 109 108 106 104 105 106 107 106 99 88 80 79 88
44 46 47 49 52 54 55 56 58 59 60 61 62 63 63 63 63 63 64 64 64 65 65 66 66 67 67 69 72 74 75 76 78 80 83 85 90 95 100 102 100 98 96 95 97 98 100 101 102 103 104 105 107 110 112 113 112 110 108 106 105 104 103 102 95 86 78 71 73
52 53 53 53 56 58 60 60 62 63 65 65 66 66 67 65 64 63 62 62 63 63 63 62 62 62 62 63 67 69 71 71 71 72 73 74 78 81 84 87 88 88 89 91 94 97 99 100 101 102 103 105 107 109 111 112 111 110 108 106 104 102 99 97 94 89 83 74 66
61 62 62 62 64 66 67 68 69 69 70 70 70 69 68 66 64 62 61 60 60 61 62 63 63 63 63 63 65 67 69 71 70 70 69 68 69 70 71 74 76 78 81 84 88 92 96 99 100 100 100 101 101 101 102 103 103 103 103 103 101 99 95 92 91 89 86 78 69
69 69 70 70 71 72 73 74 73 72 72 72 71 69 67 65 64 63 62 61 61 61 62 64 66 67 68 68 68 69 71 73 74 73 72 69 69 68 68 69 73 76 79 84 90 94 96 98 98 98 97 96 94 91 89 88 90 93 95 97 96 92 87 81 80 81 81 79 74
74 74 73 73 71 70 69 69 69 69 69 70 70 70 68 67 66 65 64 63 63 63 64 65 67 68 70 72 72 72 73 73 75 75 74 71 69 69 69 70 74 79 88 97 103 103 102 101 98 95 93 92 90 86 83 81 82 85 88 91 90 88 83 78 74 73 73 74 72
72 71 70 69 68 66 65 65 66 67 68 69 70 70 70 70 69 68 68 67 66 66 66 66 67 69 71 72 74 74 74 74 76 77 77 75 73 72 72 74 78 85 98 108 109 108 106 103 98 93 88 86 87 86 84 82 82 83 85 85 86 86 85 82 77 72 67 66 64
69 68 67 67 67 66 66 66 67 68 68 69 70 71 72 71 71 71 71 70 69 68 67 67 68 69 70 72 74 75 77 77 79 81 81 81 80 79 79 81 88 99 110 113 111 109 106 103 100 96 91 86 86 87 88 87 84 82 81 80 81 82 83 83 80 77 71 67 65
69 69 69 69 69 69 68 68 69 69 69 69 71 72 73 72 72 71 71 70 69 68 67 67 67 68 70 71 73 76 78 80 82 83 85 85 86 87 90 97 107 113 113 111 108 106 105 105 104 101 98 92 89 88 89 89 86 82 78 77 77 77 78 80 80 79 78 75 72
69 69 70 70 71 71 71 70 70 70 70 70 71 71 71 71 70 70 70 69 68 67 67 69 69 71 72 73 75 77 80 82 85 89 92 94 95 99 105 112 114 110 108 106 105 105 106 107 107 105 101 95 90 85 84 84 83 80 77 75 74 74 76 77 79 80 80 79 76
70 71 73 73 74 73 72 71 71 70 70 70 70 70 69 69 70 70 71 72 71 71 73 76 77 77 77 78 80 81 83 86 91 96 101 104 106 108 109 109 105 103 102 103 103 103 103 104 103 101 98 93 88 84 82 81 80 78 77 76 75 75 77 79 79 79 78 76 73
73 75 76 76 75 74 73 72 72 71 71 71 70 70 70 71 71 72 74 76 79 81 82 83 83 83 83 83 84 85 88 91 95 98 102 106 107 106 103 98 95 96 98 99 98 98 98 98 98 97 95 92 88 85 83 81 80 79 78 77 77 77 78 79 78 75 73 71 70
74 76 77 77 77 76 75 74 73 73 73 74 74 75 75 75 76 78 79 83 86 88 89 89 90 90 91 90 90 91 92 95 97 99 101 102 100 97 94 89 88 91 93 95 95 95 96 97 97 96 94 92 90 87 84 83 81 80 79 77 76 76 75 75 74 72 69 67 67
74 76 77 77 77 77 77 77 77 78 78 79 80 81 81 81 81 82 82 84 88 91 94 96 97 98 98 97 97 96 96 96 96 95 94 92 90 88 87 85 86 90 92 94 94 96 97 98 98 97 95 93 90 87 85 84 83 81 79 77 74 73 72 72 71 68 65 62 62
76 78 79 78 78 77 78 79 80 81 81 81 81 81 82 82 81 82 82 84 87 90 93 96 98 99 99 98 98 96 94 91 87 85 84 83 83 82 82 81 84 90 93 94 96 97 98 99 99 98 96 93 90 87 85 85 85 84 82 80 77 73 71 69 68 66 62 55 51
77 81 83 82 81 81 80 80 81 81 81 81 80 79 78 79 81 83 86 89 91 92 93 95 96 97 96 94 91 89 86 84 82 81 82 82 83 82 82 82 86 91 94 95 98 99 101 101 101 99 97 93 90 88 87 87 87 87 87 86 83 79 76 71 67 62 53 44 31
74 81 84 85 84 84 84 84 83 83 83 82 82 81 82 83 85 88 92 96 97 97 97 98 98 96 94 90 85 83 83 84 85 85 85 85 85 85 85 84 87 92 96 98 101 102 103 103 102 100 97 93 90 89 89 90 90 91 91 91 89 85 80 72 64 54 46 37 26
70 78 83 85 85 86 87 88 88 87 87 86 87 88 89 91 92 94 97 100 101 101 101 99 96 92 89 87 85 85 86 89 90 89 88 88 88 89 89 87 88 92 96 100 102 103 103 102 100 98 95 91 90 90 91 91 92 92 92 90 87 81 72 64 56 51 46 41 32
68 74 79 83 85 86 88 89 90 90 91 92 93 94 96 97 98 99 100 103 103 103 101 96 91 89 88 89 89 89 89 90 91 92 92 90 90 91 90 88 86 89 94 99 101 101 100 98 96 94 91 87 87 89 91 91 91 89 87 84 79 71 62 54 52 54 54 50 41
71 75 78 81 83 85 87 88 90 92 94 96 97 97 96 95 96 96 95 95 95 95 94 91 90 89 90 92 92 91 89 87 89 90 92 91 90 90 89 87 86 88 92 97 98 98 97 96 94 91 88 84 83 85 87 89 87 86 84 81 79 74 67 58 62 71 72 67 50
75 78 80 82 83 84 85 86 88 90 93 95 93 92 89 86 84 82 80 79 80 84 86 88 89 90 91 91 90 89 86 83 82 83 86 87 88 87 86 85 84 86 89 94 95 95 94 94 92 90 88 82 80 83 87 91 92 93 93 95 98 98 94 77 73 104 113 115 77
73 79 81 83 83 84 84 85 85 85 83 83 83 83 83 82 81 80 79 79 80 82 85 88 89 89 89 89 88 86 84 80 76 75 77 81 83 83 83 83 82 82 85 90 93 93 94 94 94 94 94 93 93 97 104 106 107 111 115 121 124 126 127 132 328 298 167 166 139